Location: Ch�risy
(50.2331°N, 2.9131°E)
Time: 22:17:18
(UTC+00:00)

Cosmos 2263 Rocket - Pass Details

Date: 17 January 2021
Orbit: 825 x 847 km, 71.0° (Epoch: 01 March)

Event Time Altitude Azimuth Distance (km) Brightness Sun altitude
Rises 19:50:08 0° 257° (WSW) 3,404 6.3 -33.4°
Reaches altitude 10° 19:53:10 10° 272° (W) 2,470 5.4 -33.9°
Maximum altitude 19:57:28 22° 322° (NW) 1,787 4.2 -34.5°
Enters shadow 19:59:02 19° 344° (NNW) 1,893 4.2 -34.8°
